Home   Weather   Columbus Square   Past weeks
Flag for USA

Past Weather in Columbus Square, Missouri, USA — Yesterday and Last 2 Weeks

Now
69 °F

Clear.


Feels Like: 69 °F
Forecast: 80 / 62 °F
Wind: 7 mph from Northeast

Location: Lambert-St. Louis International Airport

Current Time: Jul 23, 2019 at 2:55:06 am

Latest Report: Jul 23, 2019 at 1:51 am


Visibility: 10 mi

Pressure: 30.10 "Hg

Humidity: 61%

Dew Point: 55 °F

Location of Columbus SquareLocation

Past Weather in Columbus Square — Graph

°F

Columbus Square Temperature Yesterday

Maximum temperature yesterday: 82 °F (at 5:51 pm)
Minimum temperature yesterday: 66 °F (at 9:51 am)
Average temperature yesterday: 74 °F

High & Low Weather Summary for the Past Weeks

 TemperatureHumidityPressure
High96 °F (Jul 19, 2:51 pm)94% (Jul 15, 8:51 pm)30.11 "Hg (Jul 15, 8:51 pm)
Low66 °F (Jul 22, 9:51 am)36% (Jul 12, 3:51 pm)29.80 "Hg (Jul 18, 5:51 pm)
Average81 °F67%29.93 "Hg
* Reported Jul 8 12:51 am — Jul 23 12:51 am, Columbus Square. Weather by CustomWeather, © 2019

Note: Actual official high and low records may vary slightly from our data, if they occured in-between our weather recording intervals... More about our weather records

Advertising

Columbus Square Weather History for the Previous 24 Hours

Scroll right to see more
 ConditionsComfort  
Time TempWeatherWind HumidityBarometerVisibility
12:51 am
Tue, Jul 23
71 °FClear.8 mph59%30.10 "Hg10 mi
11:51 pm
Mon, Jul 22
72 °FClear.7 mph66%30.09 "Hg10 mi
10:51 pm74 °FPassing clouds.8 mph67%30.08 "Hg10 mi
9:51 pm75 °FPassing clouds.9 mph66%30.06 "Hg10 mi
8:51 pm76 °FPassing clouds.7 mph64%30.04 "Hg10 mi
7:51 pm78 °FPassing clouds.12 mph56%30.03 "Hg10 mi
6:51 pm80 °FPassing clouds.12 mph51%30.01 "Hg10 mi
5:51 pm82 °FPassing clouds.13 mph48%30.00 "Hg10 mi
4:51 pm81 °FScattered clouds.12 mph51%30.00 "Hg10 mi
3:51 pm81 °FBroken clouds.10 mph56%30.00 "Hg10 mi
2:51 pm79 °FBroken clouds.12 mph56%30.01 "Hg10 mi
1:51 pm81 °FPassing clouds.8 mph56%30.01 "Hg10 mi
12:51 pm78 °FPassing clouds.3 mph56%30.01 "Hg10 mi
11:51 am73 °FScattered clouds.3 mph71%30.01 "Hg10 mi
10:51 am67 °FPartly sunny.8 mph85%30.00 "Hg10 mi
9:51 am66 °FBroken clouds.12 mph87%29.99 "Hg10 mi
8:51 am67 °FMore clouds than sun.8 mph87%29.99 "Hg8 mi
7:51 am67 °FRain. Fog.12 mph90%29.98 "Hg3 mi
7:34 am67 °FRain. Fog.12 mph90%30.01 "Hg3 mi
7:06 am68 °FRain. Fog.10 mph90%30.01 "Hg4 mi
6:39 am69 °FHeavy rain. Fog.9 mph90%29.99 "Hg2 mi
6:16 am69 °FHeavy rain. Fog.13 mph90%29.97 "Hg1 mi
6:02 am69 °FStrong thunderstorms. Fog.12 mph90%29.98 "Hg1 mi
5:56 am69 °FStrong thunderstorms. Fog.8 mph90%29.99 "Hg1 mi
5:19 am69 °FHeavy rain. Fog.10 mph93%29.96 "Hg1 mi
5:11 am70 °FHeavy rain. Fog.20 mph90%29.95 "Hg1 mi
5:08 am71 °FHeavy rain. Fog.21 mph90%29.95 "Hg2 mi
4:44 am75 °FStrong thunderstorms. Fog.No wind90%29.93 "Hg4 mi
4:22 am75 °FHeavy rain. Fog.6 mph90%29.93 "Hg1 mi
3:57 am76 °FThunderstorms. Overcast.6 mph91%29.93 "Hg10 mi
3:23 am76 °FThunderstorms. Overcast.9 mph88%29.93 "Hg10 mi
3:07 am76 °FLight rain. Overcast.7 mph88%29.92 "Hg10 mi
2:30 am80 °FMostly cloudy.8 mph74%29.92 "Hg10 mi
2:13 am80 °FMostly cloudy.8 mph74%29.92 "Hg10 mi
Weather by CustomWeather, © 2019

See weather overview